Location: Firdgum
(53.2488°N, 5.5615°E)
Time: 03:04:24
(UTC+00:00)

Cosmos 1891 Rocket - Pass Details

Date: 08 December 2019
Orbit: 933 x 1019 km, 82.9° (Epoch: 17 January)

Event Time Altitude Azimuth Distance (km) Brightness Sun altitude
Rises 04:20:08 0° 190° (S) 3,740 7.5 -28.2°
Reaches altitude 10° 04:22:40 10° 191° (S) 2,787 6.8 -27.9°
Maximum altitude 04:29:07 85° 281° (W) 1,011 4.4 -26.9°
Drops below altitude 10° 04:35:28 10° 10° (N) 2,753 6.9 -26.0°
Sets 04:37:58 0° 11° (N) 3,692 7.6 -25.6°
